Miscellaneous Local Product
Issued by NWS North Platte, NE

Home | Current Version | Previous Version | Text Only | Print | Product List | Glossary On
Versions: 1 2 3 4 5 6 7 8 9 10 11 12 13 14 15 16 17 18 19 20 21 22 23 24 25 26 27 28 29 30 31 32 33 34 35 36 37 38 39 40 41 42 43 44 45 46 47 48 49 50
000
AXUS43 KLBF 191510
MISLBF


WESTERN AND NORTH CENTRAL NEBRASKA HOURLY WEATHER ROUNDUP
NATIONAL WEATHER SERVICE NORTH PLATTE NE
900 AM CST FRI DEC 19 2014

***STATIONS NOT REPORTING VARIABLES SUCH AS SKY/WEATHER OR
PRESSURE ARE PROVIDED BY THE NEBRASKA DEPARTMENT OF
ROADS...RAWS...AND APRS NETWORKS...AND ARE NOT UNDER
NATIONAL WEATHER SERVICE QUALITY CONTROL***

...OBSERVATIONS IN AND NEAR THE EASTERN PANHANDLE OF NEBRASKA...

CITY           SKY/WX    TMP DP  RH WIND       PRES   REMARKS
PINE RIDGE     CLEAR     26  16  65 W7        30.02S WCI  18
CHADRON        PTCLDY    15   9  76 CALM      30.04S
ALLIANCE       PTCLDY     5   3  91 W9        30.04S WCI  -9
SIDNEY         PTCLDY    21  12  68 W13       30.07S WCI   9
WHITECLAY        N/A     32  16  51 CALM        N/A
CRESCENT LAKE    N/A     16  12  84 CALM        N/A
LISCO            N/A      9   3  76 W3          N/A
BIG SPRINGS      N/A     19  16  88 W12         N/A  WCI   7
$$

...OBSERVATIONS IN NORTH CENTRAL NEBRASKA...

CITY           SKY/WX    TMP DP  RH WIND       PRES   REMARKS
VALENTINE      CLEAR     14  11  87 SW8       30.04S WCI   3
THEDFORD       PTCLDY    16  14  93 W3        30.06S
AINSWORTH      PTCLDY    19  16  86 SW3       30.04S
O`NEILL        FOG       26  26 100 SW5       30.10S VSB 1/2 WCI  20
BROKEN BOW     FOG       22  21  96 SW5       30.10R VSB 1/2 WCI  16
BROWNLEE         N/A     17  13  88 CALM        N/A
SPRINGVIEW       N/A      8   5  89 CALM        N/A
BREWSTER         N/A     17  16  93 CALM        N/A
ROSE             N/A     22  22 100 MISG        N/A
SARGENT          N/A     23  22  96 SW3         N/A
COMSTOCK         N/A     30  30 100 SW3         N/A
CHAMBERS         N/A     25  25  98 CALM        N/A
$$

...OBSERVATIONS IN SOUTHWEST NEBRASKA AND FAR NORTHEAST COLORADO...

CITY           SKY/WX    TMP DP  RH WIND       PRES   REMARKS
WRAY           CLOUDY    22  19  88 SW7       30.11S WCI  14
IMPERIAL       PTCLDY    14   9  80 CALM      30.10F
OGALLALA       CLEAR     14  12  90 W7        30.10S WCI   4
NORTH PLATTE   PTCLDY    15  10  80 CALM      30.10S
MCCOOK         CLEAR     19  17  92 W6        30.13R FOG     WCI  11
LEXINGTON      FOG       25  24  96 W6        30.12S VSB 1/4 WCI  18
PAXTON           N/A     17  14  89 W5          N/A  WCI  10
BRADY            N/A     12  10  89 CALM        N/A
GOTHENBURG       N/A     20  18  90 CALM        N/A
CALLAWAY         N/A     20  19  96 CALM        N/A
$$

...NORTH PLATTE AREA...

CITY           SKY/WX    TMP DP  RH WIND       PRES   REMARKS
AIRPORT        PTCLDY    15  10  80 CALM      30.10S
DOWNTOWN         N/A     18  15  89 CALM        N/A
$$

...SOME WEATHER OBSERVATIONS FROM AROUND THE REGION...

CITY           SKY/WX    TMP DP  RH WIND       PRES   REMARKS
DENVER         PTCLDY    25  19  78 SW9       30.09S WCI  15
LARAMIE        PTCLDY    19  12  74 SW12      30.06S WCI   7
CHEYENNE       CLEAR     29  14  53 SW14      30.05R WCI  18
SCOTTSBLUFF    PTCLDY     7   5  91 CALM      30.06F FOG
RAPID CITY     PTCLDY    23  16  74 CALM      29.97F
PIERRE         FOG       18  14  84 S3        30.02S VSB 1
WINNER         FAIR      24  16  71 S6        30.03S WCI  17
SIOUX FALLS    CLOUDY    29  26  89 S12       30.15R WCI  19
OMAHA          CLOUDY    31  28  89 S9        30.24S FOG     WCI  23
GRAND ISLAND   CLOUDY    31  28  89 SW6       30.16R WCI  25
KANSAS CITY    DRIZZLE   30  29  96 E6        30.26S FOG     WCI  24
WICHITA        CLOUDY    32  29  88 S3        30.25S FOG
HAYS           MOSUNNY   32  25  74 SE5       30.17R WCI  27
LIBERAL        CLOUDY    37  30  75 CALM      30.18R
GOODLAND       CLEAR     27  22  81 W13       30.13R WCI  16
$$



USA.gov is the U.S. government's official web portal to all federal, state and local government web resources and services.